This demonstration page uses our WeatherBlox Daily Observations layout. Learn more.

Left ArrowRight Arrow

38.20091, -84.87328

Hourly Observations for July 8, 2018

Temp ( °F °C ) Dew Point ( °F °C ) Humidity (%) Winds ( mph kmh ) Pressure ( in mb ) Visibility ( mi km ) Precip ( " mm )
12:53 am 00:53 Clear 71 21.7 60 15.6 68 68 NE 3 6 30.21 1023 10 16 0.00 0.00
1:53 am 01:53 Clear 71 21.7 60 15.6 68 68 NE 5 7 30.21 1023 10 16 0.00 0.00
2:53 am 02:53 Clear 69 20.6 60 15.6 73 73 ENE 3 6 30.20 1023 10 16 0.00 0.00
3:53 am 03:53 Clear 69 20.6 60 15.6 73 73 NNE 3 6 30.20 1023 10 16 0.00 0.00
4:53 am 04:53 Clear 68 20 59 15 73 73 NE 5 7 30.20 1023 10 16 0.00 0.00
5:53 am 05:53 Mostly Clear 65 18.3 59 15 81 81 Calm 30.21 1023 10 16 0.00 0.00
6:53 am 06:53 Sunny 65 18.3 60 15.6 84 84 Calm 30.22 1023 10 16 0.00 0.00
7:53 am 07:53 Sunny 69 20.6 61 16.1 76 76 ENE 3 6 30.23 1024 10 16 0.00 0.00
8:53 am 08:53 Sunny 73 22.8 62 16.7 69 69 E 3 6 30.25 1024 10 16 0.00 0.00
9:53 am 09:53 Sunny 78 25.6 65 18.3 64 64 NE 3 6 30.26 1025 10 16 0.00 0.00
10:53 am 10:53 Sunny 81 27.2 67 19.4 62 62 Calm 30.25 1025 10 16 0.00 0.00
11:53 am 11:53 Sunny 83 28.3 67 19.4 59 59 Calm 30.25 1025 10 16 0.00 0.00
12:53 pm 12:53 Sunny 85 29.4 66 18.9 53 53 Calm 30.24 1024 10 16 0.00 0.00
1:53 pm 13:53 Mostly Sunny 88 31.1 68 20 52 52 VRB 6 9 30.22 1023 10 16 0.00 0.00
2:53 pm 14:53 Mostly Sunny 88 31.1 67 19.4 50 50 SE 5 7 30.21 1023 10 16 0.00 0.00
3:53 pm 15:53 Mostly Sunny 90 32.2 67 19.4 47 47 ENE 6 9 30.20 1023 10 16 0.00 0.00
4:53 pm 16:53 Partly Cloudy 91 32.8 66 18.9 44 44 VRB 5 7 30.19 1022 10 16 0.00 0.00
5:53 pm 17:53 Sunny 89 31.7 65 18.3 45 45 ESE 5 7 30.19 1023 10 16 0.00 0.00
6:53 pm 18:53 Partly Cloudy 88 31.1 65 18.3 46 46 ENE 3 6 30.18 1022 10 16 0.00 0.00
7:53 pm 19:53 Sunny 86 30 65 18.3 49 49 E 7 11 30.18 1022 10 16 0.00 0.00
8:53 pm 20:53 Sunny 82 27.8 65 18.3 56 56 ENE 5 7 30.19 1022 10 16 0.00 0.00
9:53 pm 21:53 Clear 78 25.6 65 18.3 64 64 E 5 7 30.19 1023 10 16 0.00 0.00
10:53 pm 22:53 Clear 75 23.9 66 18.9 74 74 Calm 30.21 1023 10 16 0.00 0.00
11:53 pm 23:53 Clear 72 22.2 66 18.9 82 82 Calm 30.22 1023 10 16 0.00 0.00

Powered by AerisWeather